Cambridge, MD

4:56 PM EDT on April 23, 2017 (GMT -0400)
Cambridge-Dorchester

Weather History for KCGE - February, 2014

Change the Weather History Date:

Friday, February 28, 2014

  Actual Average (KESN) Record (KESN)
Temperature  
Mean Temperature 22 °F -  
Max Temperature 28 °F 55 °F 70 °F (1954)
Min Temperature 17 °F 33 °F 10 °F (1950)
Degree Days  
Heating Degree Days 42    
Moisture  
Dew Point -1 °F    
Average Humidity 36    
Maximum Humidity 59    
Minimum Humidity 25    
Precipitation  
Precipitation 0.00 in - - ()
Sea Level Pressure  
Sea Level Pressure 30.36 in    
Wind  
Wind Speed 9 mph (North)    
Max Wind Speed 17 mph    
Max Gust Speed 24 mph    
Visibility 10 miles    
Events      
Averages and records for this station are not official NWS values.
T = Trace of Precipitation, MM = Missing Value Source: NWS Daily Summary

Daily Weather History Graph

Daily Weather History Graph

Search for Another Location

Airport or City:

Trip Planner

Search our weather history database for the weather conditions in past years. The results will help you decide how hot, cold, wet, or windy it might be!

Date:

Astronomy

Feb. 28, 2014 Rise Set
Actual Time 6:37 AM EST 5:56 PM EST
Civil Twilight 6:11 AM EST 6:22 PM EST
Nautical Twilight 5:40 AM EST 6:53 PM EST
Astronomical Twilight 5:09 AM EST 7:24 PM EST
Moon 5:50 AM EST (2/28) 5:30 PM EST (2/28)
Length of Visible Light 12h 11m
Length of Day
11h 18m
Waning Crescent, 1% of the Moon is Illuminated
Feb 28
Waning Crescent
Mar 1
New
Mar 8
First Quarter
Mar 16
Full
Mar 23
Last Quarter

Hourly Weather History & Observations

Time (EST) Temp. Windchill Dew Point Humidity Pressure Visibility Wind Dir Wind Speed Gust Speed Precip Events Conditions
12:01 AM 26.6 °F 14.3 °F 5.0 °F 40% 30.13 in 10.0 mi NNW 16.1 mph 24.2 mph N/A   Clear
12:21 AM 24.8 °F 14.0 °F 5.0 °F 43% 30.15 in 10.0 mi North 11.5 mph 17.3 mph N/A   Clear
12:41 AM 23.0 °F 11.7 °F 5.0 °F 46% 30.16 in 10.0 mi North 11.5 mph - N/A   Clear
1:01 AM 23.0 °F 11.1 °F 3.2 °F 43% 30.17 in 10.0 mi North 12.7 mph 19.6 mph N/A   Clear
1:21 AM 23.0 °F 11.1 °F 3.2 °F 43% 30.18 in 10.0 mi NNW 12.7 mph 18.4 mph N/A   Clear
1:41 AM 23.0 °F 9.2 °F 1.4 °F 39% 30.19 in 10.0 mi North 17.3 mph 24.2 mph N/A   Clear
2:02 AM 23.0 °F 10.6 °F -0.4 °F 36% 30.20 in 10.0 mi North 13.8 mph 19.6 mph N/A   Clear
2:22 AM 21.2 °F 9.5 °F -2.2 °F 36% 30.21 in 10.0 mi NNW 11.5 mph 19.6 mph N/A   Clear
2:42 AM 21.2 °F 10.9 °F -4.0 °F 33% 30.23 in 10.0 mi North 9.2 mph 18.4 mph N/A   Clear
3:02 AM 19.4 °F 7.2 °F -4.0 °F 36% 30.23 in 10.0 mi NNE 11.5 mph - N/A   Clear
3:22 AM 19.4 °F 6.0 °F -4.0 °F 36% 30.24 in 10.0 mi North 13.8 mph - N/A   Clear
3:42 AM 19.4 °F 6.6 °F -4.0 °F 36% 30.25 in 10.0 mi North 12.7 mph 16.1 mph N/A   Clear
4:02 AM 19.4 °F 8.6 °F -5.8 °F 33% 30.26 in 10.0 mi North 9.2 mph 19.6 mph N/A   Clear
4:22 AM 19.4 °F 8.6 °F -4.0 °F 36% 30.28 in 10.0 mi NNE 9.2 mph - N/A   Clear
4:42 AM 19.4 °F 7.2 °F -5.8 °F 33% 30.29 in 10.0 mi North 11.5 mph 17.3 mph N/A   Clear
5:02 AM 19.4 °F 6.6 °F -7.6 °F 30% 30.30 in 10.0 mi North 12.7 mph 16.1 mph N/A   Clear
5:22 AM 19.4 °F 9.5 °F -4.0 °F 36% 30.31 in 10.0 mi NNE 8.1 mph 11.5 mph N/A   Clear
5:42 AM 17.6 °F 5.0 °F -5.8 °F 35% 30.32 in 10.0 mi North 11.5 mph 17.3 mph N/A   Clear
6:02 AM 17.6 °F 7.3 °F -5.8 °F 35% 30.32 in 10.0 mi North 8.1 mph - N/A   Clear
6:22 AM 17.6 °F 4.3 °F -9.4 °F 30% 30.34 in 10.0 mi North 12.7 mph - N/A   Clear
6:42 AM 17.6 °F 5.7 °F -9.4 °F 30% 30.36 in 10.0 mi North 10.4 mph - N/A   Clear
7:02 AM 17.6 °F 7.3 °F -9.4 °F 30% 30.36 in 10.0 mi North 8.1 mph - N/A   Clear
7:22 AM 17.6 °F 6.4 °F -7.6 °F 32% 30.37 in 10.0 mi North 9.2 mph - N/A   Clear
7:42 AM 19.4 °F 8.6 °F -7.6 °F 30% 30.38 in 10.0 mi North 9.2 mph - N/A   Clear
8:02 AM 19.4 °F 10.4 °F -5.8 °F 33% 30.40 in 10.0 mi NNE 6.9 mph - N/A   Clear
8:22 AM 19.4 °F 9.5 °F -5.8 °F 33% 30.41 in 10.0 mi NNW 8.1 mph - N/A   Clear
8:42 AM 19.4 °F 11.5 °F -7.6 °F 30% 30.41 in 10.0 mi North 5.8 mph - N/A   Clear
9:02 AM 19.4 °F 10.4 °F -7.6 °F 30% 30.42 in 10.0 mi NNE 6.9 mph - N/A   Clear
9:22 AM 21.2 °F 13.6 °F -5.8 °F 30% 30.42 in 10.0 mi NE 5.8 mph - N/A   Clear
9:42 AM 23.0 °F 14.7 °F -4.0 °F 31% 30.42 in 10.0 mi NE 6.9 mph - N/A   Clear
10:02 AM 23.0 °F 15.8 °F -5.8 °F 28% 30.42 in 10.0 mi NE 5.8 mph - N/A   Clear
10:22 AM 23.0 °F 13.9 °F -5.8 °F 28% 30.43 in 10.0 mi North 8.1 mph - N/A   Clear
10:42 AM 23.0 °F 14.7 °F -4.0 °F 31% 30.43 in 10.0 mi NW 6.9 mph - N/A   Clear
11:03 AM 23.0 °F 14.7 °F -4.0 °F 31% 30.44 in 10.0 mi NW 6.9 mph - N/A   Clear
11:23 AM 23.0 °F 15.8 °F -4.0 °F 31% 30.44 in 10.0 mi NNW 5.8 mph - N/A   Clear
11:43 AM 23.0 °F 17.0 °F -4.0 °F 31% 30.43 in 10.0 mi NNW 4.6 mph - N/A   Clear
12:03 PM 24.8 °F 19.1 °F -4.0 °F 28% 30.43 in 10.0 mi WNW 4.6 mph - N/A   Clear
12:23 PM 24.8 °F - -4.0 °F 28% 30.42 in 10.0 mi Calm Calm - N/A   Clear
12:43 PM 26.6 °F 18.2 °F -0.4 °F 31% 30.41 in 10.0 mi NW 8.1 mph - N/A   Clear
1:03 PM 26.6 °F 20.0 °F -4.0 °F 26% 30.41 in 10.0 mi NNW 5.8 mph - N/A   Clear
1:23 PM 26.6 °F 20.0 °F -4.0 °F 26% 30.41 in 10.0 mi North 5.8 mph - N/A   Clear
1:43 PM 26.6 °F 22.6 °F -0.4 °F 31% 30.40 in 10.0 mi NNW 3.5 mph - N/A   Clear
2:03 PM 28.4 °F - -4.0 °F 25% 30.39 in 10.0 mi Calm Calm - N/A   Clear
2:23 PM 28.4 °F 21.2 °F -0.4 °F 29% 30.38 in 10.0 mi NNW 6.9 mph - N/A   Clear
2:43 PM 28.4 °F 23.3 °F -0.4 °F 29% 30.38 in 10.0 mi NW 4.6 mph - N/A   Clear
3:03 PM 28.4 °F - -0.4 °F 29% 30.38 in 10.0 mi Calm Calm - N/A   Clear
3:23 PM 28.4 °F 22.2 °F -0.4 °F 29% 30.38 in 10.0 mi North 5.8 mph - N/A   Clear
3:43 PM 28.4 °F - -2.2 °F 27% 30.38 in 10.0 mi Calm Calm - N/A   Clear
4:03 PM 28.4 °F 24.6 °F 1.4 °F 31% 30.38 in 10.0 mi NNW 3.5 mph - N/A   Clear
4:23 PM 28.4 °F 23.3 °F -0.4 °F 29% 30.39 in 10.0 mi North 4.6 mph - N/A   Clear
4:43 PM 28.4 °F - -2.2 °F 27% 30.39 in 10.0 mi Calm Calm - N/A   Clear
5:03 PM 28.4 °F 24.6 °F -0.4 °F 29% 30.39 in 10.0 mi North 3.5 mph - N/A   Clear
5:23 PM 28.4 °F 24.6 °F -0.4 °F 29% 30.39 in 10.0 mi NNW 3.5 mph - N/A   Clear
5:43 PM 28.4 °F 24.6 °F -0.4 °F 29% 30.39 in 10.0 mi North 3.5 mph - N/A   Clear
6:03 PM 28.4 °F - 1.4 °F 31% 30.39 in 10.0 mi Calm Calm - N/A   Clear
6:23 PM 26.6 °F - 5.0 °F 40% 30.40 in 10.0 mi Calm Calm - N/A   Clear
6:43 PM 24.8 °F - 6.8 °F 46% 30.40 in 10.0 mi Calm Calm - N/A   Clear
7:03 PM 24.8 °F - 5.0 °F 43% 30.39 in 10.0 mi Calm Calm - N/A   Clear
7:23 PM 24.8 °F - 5.0 °F 43% 30.39 in 10.0 mi Calm Calm - N/A   Clear
7:44 PM 23.0 °F - 8.6 °F 54% 30.39 in 10.0 mi Calm Calm - N/A   Clear
8:04 PM 23.0 °F - 5.0 °F 46% 30.39 in 10.0 mi Calm Calm - N/A   Clear
8:24 PM 23.0 °F - 10.4 °F 59% 30.40 in 10.0 mi Calm Calm - N/A   Clear
8:44 PM 23.0 °F - 10.4 °F 59% 30.40 in 10.0 mi Calm Calm - N/A   Clear
9:04 PM 23.0 °F 18.4 °F 8.6 °F 54% 30.41 in 10.0 mi East 3.5 mph - N/A   Clear
9:24 PM 23.0 °F 15.8 °F 10.4 °F 59% 30.41 in 10.0 mi ESE 5.8 mph - N/A   Clear
9:44 PM 23.0 °F 13.9 °F 8.6 °F 54% 30.41 in 10.0 mi ESE 8.1 mph - N/A   Clear
10:04 PM 23.0 °F 14.7 °F 5.0 °F 46% 30.41 in 10.0 mi SE 6.9 mph - N/A   Clear
10:24 PM 23.0 °F 15.8 °F 3.2 °F 43% 30.41 in 10.0 mi ESE 5.8 mph - N/A   Clear
10:44 PM 23.0 °F 17.0 °F 5.0 °F 46% 30.41 in 10.0 mi East 4.6 mph - N/A   Clear
11:04 PM 23.0 °F - 8.6 °F 54% 30.41 in 10.0 mi Calm Calm - N/A   Clear
11:24 PM 23.0 °F - 8.6 °F 54% 30.41 in 10.0 mi Calm Calm - N/A   Clear
11:44 PM 23.0 °F - 10.4 °F 59% 30.41 in 10.0 mi Calm Calm - N/A   Clear